Home   Weather   Budapest   Past weeks
Flag for Hungary

Past Weather in Budapest, Hungary — Yesterday and Last 2 Weeks

Now
34 °F

Fog.


Feels Like: 34 °F
Forecast: 58 / 45 °F
Wind: No wind

Location: Ferenc Liszt International Airport

Current Time: Mar 24, 2019 at 6:32:44 am

Latest Report: Mar 24, 2019 at 6:00 am


Visibility: 4 mi

Pressure: 30.21 "Hg

Humidity: 100%

Dew Point: 34 °F

Location of BudapestLocation

Past Weather in Budapest — Graph

°F

Budapest Temperature Yesterday

Maximum temperature yesterday: 68 °F (at 5:00 pm)
Minimum temperature yesterday: 34 °F (at 6:00 am)
Average temperature yesterday: 52 °F

High & Low Weather Summary for the Past Weeks

 TemperatureHumidityPressure
High70 °F (Mar 17, 2:00 pm)100% (Mar 13, 6:00 pm)30.60 "Hg (Mar 13, 6:00 pm)
Low21 °F (Mar 13, 12:30 am)29% (Mar 21, 3:30 pm)29.62 "Hg (Mar 15, 2:00 am)
Average46 °F68%30.08 "Hg
* Reported Mar 9 5:00 am — Mar 24 5:00 am, Budapest. Weather by CustomWeather, © 2019

Note: Actual official high and low records may vary slightly from our data, if they occured in-between our weather recording intervals... More about our weather records

Advertising

Budapest Weather History for the Previous 24 Hours

Scroll right to see more
 ConditionsComfort  
Time TempWeatherWind HumidityBarometerVisibility
5:00 am
Sun, Mar 24
32 °FClear.2 mph100%30.21 "Hg4 mi
4:30 am34 °FClear.1 mph100%30.21 "Hg5 mi
4:00 am34 °FClear.No wind100%30.21 "Hg5 mi
3:30 am34 °FClear.No wind100%30.21 "Hg5 mi
3:00 am36 °FClear.2 mph100%30.21 "Hg5 mi
2:30 am36 °FClear.No wind100%30.21 "Hg6 mi
2:00 am36 °FClear.2 mph100%30.24 "Hg10 mi
1:30 am36 °FClear.1 mph100%30.24 "Hg10 mi
1:00 am37 °FClear.1 mph100%30.24 "Hg10 mi
12:30 am37 °FClear.2 mph100%30.24 "Hg10 mi
12:00 am37 °FClear.2 mph100%30.24 "Hg10 mi
11:30 pm
Sat, Mar 23
43 °FClear.2 mph93%30.24 "Hg10 mi
11:00 pm41 °FClear.1 mph100%30.27 "Hg10 mi
10:30 pm43 °FClear.No wind87%30.27 "Hg10 mi
10:00 pm43 °FClear.2 mph81%30.27 "Hg10 mi
9:30 pm45 °FClear.2 mph81%30.27 "Hg10 mi
9:00 pm45 °FClear.No wind81%30.27 "Hg10 mi
8:30 pm50 °FClear.1 mph82%30.27 "Hg10 mi
8:00 pm52 °FClear.2 mph62%30.27 "Hg10 mi
7:30 pm57 °FClear.1 mph55%30.24 "Hg10 mi
7:00 pm59 °FClear.1 mph51%30.24 "Hg10 mi
6:30 pm61 °FClear.1 mph48%30.24 "Hg10 mi
6:00 pm64 °FClear.3 mph40%30.24 "Hg10 mi
5:30 pm63 °FSunny.2 mph45%30.24 "Hg10 mi
5:00 pm68 °FSunny.2 mph38%30.24 "Hg10 mi
4:30 pm66 °FSunny.1 mph40%30.24 "Hg10 mi
4:00 pm66 °FPassing clouds.5 mph40%30.27 "HgN/A
3:30 pm66 °FSunny.3 mph40%30.27 "Hg10 mi
3:00 pm66 °FSunny.6 mph40%30.27 "Hg10 mi
2:30 pm64 °FSunny.5 mph43%30.27 "Hg10 mi
2:00 pm64 °FSunny.6 mph43%30.30 "Hg10 mi
1:30 pm64 °FSunny.3 mph43%30.30 "Hg10 mi
1:00 pm63 °FPassing clouds.6 mph42%30.33 "HgN/A
12:30 pm63 °FPassing clouds.7 mph49%30.33 "HgN/A
12:00 pm61 °FSunny.2 mph55%30.36 "Hg10 mi
11:30 am59 °FPassing clouds.5 mph48%30.36 "HgN/A
11:00 am59 °FSunny.3 mph48%30.36 "Hg10 mi
10:30 am57 °FSunny.2 mph51%30.36 "Hg10 mi
10:00 am55 °FPassing clouds.6 mph55%30.36 "HgN/A
9:30 am55 °FPassing clouds.5 mph55%30.39 "HgN/A
9:00 am55 °FPassing clouds.8 mph63%30.39 "HgN/A
8:00 am50 °FSunny.3 mph82%30.39 "Hg10 mi
7:30 am48 °FClear.5 mph82%30.39 "Hg5 mi
7:00 am41 °FFog.2 mph100%30.39 "Hg5 mi
6:30 am41 °FClear.1 mph100%30.39 "Hg5 mi
6:00 am34 °FClear.3 mph100%30.39 "Hg5 mi
Weather by CustomWeather, © 2019

See weather overview